Location: Newark
(39.6867°N, 100.6772°W)
Time: 20:41:02
(UTC+00:00)

Vanguard 1 - Pass Details

Date: 22 October 2019
Orbit: 652 x 3831 km, 34.2° (Epoch: 21 November)

Event Time Altitude Azimuth Distance (km) Brightness Sun altitude
Rises 08:16:40 0° 278° (W) 6,340 - -52.4°
Reaches altitude 10° 08:21:27 10° 267° (W) 5,760 - -51.8°
Maximum altitude 08:35:28 26° 219° (SW) 5,354 - -49.6°
Exits shadow 08:50:04 13° 177° (S) 6,615 14.0 -47.3°
Drops below altitude 10° 08:52:26 10° 173° (S) 6,903 14.1 -46.9°
Sets 08:59:14 0° 162° (SSE) 7,779 14.6 -45.8°
